When you browse on this site, cookies collect data to enhance your experience and personalize the content and advertising you see.
Visit our Privacy Policy to learn more. By continuing to use the site, you agree to this use of cookies and data.
  • In Lithuania
  • List of Countries
  • For 7 days
  • Water Temperature
  • Satellite Maps
  • Weather Map
  • Weather Widgets
  • user-avatar
    Login

    Hourly Weather Annaba

    Today, 14 December, Friday

    Time Temperature Precipitation Wind Pressure Humidity
    00:00 +15°C° 0.3 mm 2 mps 754 mmHg 59%
    01:00 +15°C° 0.3 mm 2 mps 753 mmHg 60%
    02:00 +15°C° 0.1 mm 2 mps 753 mmHg 61%
    03:00 +13°C° 0.1 mm 3 mps 753 mmHg 61%
    04:00 +13°C° 0.1 mm 3 mps 753 mmHg 61%
    05:00 +14°C° 0.2 mm 2 mps 753 mmHg 64%
    06:00 +14°C° 0.2 mm 2 mps 753 mmHg 67%
    07:00 +13°C° 0.2 mm 2 mps 752 mmHg 69%
    08:00 +14°C° 0.5 mm 2 mps 753 mmHg 66%
    09:00 +14°C° 0.5 mm 2 mps 753 mmHg 64%
    10:00 +15°C° 0.5 mm 2 mps 753 mmHg 61%
    11:00 +14°C° 0.6 mm 3 mps 753 mmHg 59%
    12:00 +16°C° 0.6 mm 3 mps 753 mmHg 57%
    13:00 +15°C° 0.6 mm 4 mps 753 mmHg 55%
    14:00 +15°C° 0.3 mm 4 mps 753 mmHg 61%
    15:00 +14°C° 0.3 mm 5 mps 753 mmHg 67%
    16:00 +13°C° 0.3 mm 5 mps 753 mmHg 73%
    17:00 +13°C° 0.3 mm 5 mps 754 mmHg 76%
    18:00 +11°C° 0.3 mm 6 mps 754 mmHg 78%
    19:00 +11°C° 0.3 mm 6 mps 755 mmHg 81%
    20:00 +11°C° 0.4 mm 7 mps 755 mmHg 82%
    21:00 +11°C° 0.4 mm 7 mps 756 mmHg 83%
    22:00 +12°C° 0.4 mm 7 mps 757 mmHg 84%
    23:00 +12°C° 0.9 mm 9 mps 758 mmHg 85%

    Tomorrow, 15 December, Saturday

    Time Temperature Precipitation Wind Pressure Humidity
    00:00 +12°C° 0.9 mm 10 mps 758 mmHg 86%
    01:00 +12°C° 0.9 mm 12 mps 759 mmHg 87%
    02:00 +12°C° 0.3 mm 11 mps 759 mmHg 85%
    03:00 +11°C° 0.3 mm 11 mps 760 mmHg 83%
    04:00 +11°C° 0.3 mm 10 mps 761 mmHg 81%
    05:00 +11°C° 0.1 mm 10 mps 761 mmHg 80%
    06:00 +10°C° 0.1 mm 9 mps 762 mmHg 80%
    07:00 +10°C° 0.1 mm 9 mps 763 mmHg 79%
    08:00 +11°C° 0 mm 9 mps 763 mmHg 75%
    09:00 +11°C° 0 mm 9 mps 764 mmHg 71%
    10:00 +12°C° 0 mm 9 mps 764 mmHg 66%
    11:00 +12°C° 0.1 mm 9 mps 764 mmHg 69%
    12:00 +12°C° 0.1 mm 9 mps 764 mmHg 71%
    13:00 +13°C° 0.1 mm 9 mps 764 mmHg 73%
    14:00 +13°C° 0.2 mm 9 mps 764 mmHg 74%
    15:00 +13°C° 0.2 mm 9 mps 764 mmHg 74%
    16:00 +13°C° 0.2 mm 9 mps 763 mmHg 75%
    17:00 +13°C° 0.2 mm 8 mps 764 mmHg 78%
    18:00 +12°C° 0.2 mm 8 mps 764 mmHg 81%
    19:00 +12°C° 0.2 mm 8 mps 765 mmHg 85%
    20:00 +12°C° 0.1 mm 7 mps 765 mmHg 85%
    21:00 +12°C° 0.1 mm 7 mps 765 mmHg 85%
    22:00 +11°C° 0.1 mm 7 mps 765 mmHg 86%
    23:00 +11°C° 0.1 mm 6 mps 765 mmHg 86%

    Day after tomorrow, 16 December, Sunday

    Time Temperature Precipitation Wind Pressure Humidity
    00:00 +11°C° 0.1 mm 6 mps 765 mmHg 86%
    01:00 +11°C° 0.1 mm 6 mps 765 mmHg 85%
    02:00 +11°C° 0 mm 6 mps 765 mmHg 85%
    03:00 +10°C° 0 mm 5 mps 765 mmHg 85%
    04:00 +10°C° 0 mm 5 mps 765 mmHg 85%
    05:00 +10°C° 0 mm 5 mps 765 mmHg 84%
    06:00 +10°C° 0 mm 5 mps 765 mmHg 83%
    07:00 +11°C° 0 mm 4 mps 765 mmHg 82%
    08:00 +12°C° 0 mm 4 mps 765 mmHg 77%
    09:00 +13°C° 0 mm 4 mps 765 mmHg 72%
    10:00 +15°C° 0 mm 4 mps 765 mmHg 66%
    11:00 +17°C° 0 mm 3 mps 765 mmHg 61%
    12:00 +18°C° 0 mm 3 mps 765 mmHg 55%
    13:00 +20°C° 0 mm 3 mps 764 mmHg 49%
    14:00 +20°C° 0 mm 2 mps 764 mmHg 51%
    15:00 +20°C° 0 mm 2 mps 764 mmHg 53%
    16:00 +21°C° 0 mm 1 mps 764 mmHg 55%
    17:00 +20°C° 0 mm 1 mps 764 mmHg 58%
    18:00 +18°C° 0 mm 1 mps 764 mmHg 61%
    19:00 +16°C° 0 mm 2 mps 764 mmHg 65%
    20:00 +16°C° 0 mm 2 mps 765 mmHg 65%
    21:00 +16°C° 0 mm 2 mps 765 mmHg 66%
    22:00 +14°C° 0 mm 3 mps 765 mmHg 66%
    23:00 +14°C° 0 mm 3 mps 765 mmHg 66%

    17 December, Monday

    Time Temperature Precipitation Wind Pressure Humidity
    00:00 +14°C° 0 mm 3 mps 765 mmHg 67%
    01:00 +14°C° 0 mm 3 mps 765 mmHg 67%
    02:00 +14°C° 0 mm 3 mps 765 mmHg 67%
    03:00 +13°C° 0 mm 4 mps 765 mmHg 67%
    04:00 +13°C° 0 mm 4 mps 765 mmHg 68%
    05:00 +13°C° 0 mm 4 mps 765 mmHg 68%
    06:00 +13°C° 0 mm 4 mps 765 mmHg 68%
    07:00 +13°C° 0 mm 4 mps 765 mmHg 68%
    08:00 +14°C° 0 mm 4 mps 765 mmHg 64%
    09:00 +15°C° 0 mm 4 mps 766 mmHg 60%
    10:00 +18°C° 0 mm 4 mps 766 mmHg 57%
    11:00 +17°C° 0 mm 5 mps 766 mmHg 57%
    12:00 +19°C° 0 mm 5 mps 766 mmHg 57%
    13:00 +20°C° 0 mm 6 mps 765 mmHg 56%
    14:00 +19°C° 0 mm 6 mps 766 mmHg 61%
    15:00 +19°C° 0 mm 6 mps 766 mmHg 66%
    16:00 +17°C° 0 mm 6 mps 766 mmHg 71%
    17:00 +16°C° 0.1 mm 6 mps 766 mmHg 75%
    18:00 +15°C° 0.1 mm 5 mps 767 mmHg 79%
    19:00 +14°C° 0.1 mm 5 mps 768 mmHg 83%
    20:00 +14°C° 0.1 mm 4 mps 768 mmHg 85%
    21:00 +13°C° 0.1 mm 4 mps 769 mmHg 87%
    22:00 +13°C° 0.1 mm 4 mps 769 mmHg 90%
    23:00 +12°C° 0.1 mm 4 mps 769 mmHg 90%

    18 December, Tuesday

    Time Temperature Precipitation Wind Pressure Humidity
    00:00 +12°C° 0.1 mm 4 mps 769 mmHg 90%
    01:00 +12°C° 0.1 mm 4 mps 770 mmHg 90%
    02:00 +11°C° 0 mm 4 mps 770 mmHg 90%
    03:00 +11°C° 0 mm 4 mps 770 mmHg 90%
    04:00 +11°C° 0 mm 4 mps 770 mmHg 90%
    05:00 +11°C° 0 mm 4 mps 770 mmHg 89%
    06:00 +11°C° 0 mm 3 mps 770 mmHg 89%
    07:00 +10°C° 0 mm 3 mps 770 mmHg 89%
    08:00 +11°C° 0 mm 3 mps 770 mmHg 84%
    09:00 +12°C° 0 mm 3 mps 770 mmHg 79%
    10:00 +14°C° 0 mm 2 mps 771 mmHg 74%
    11:00 +15°C° 0 mm 2 mps 770 mmHg 67%
    12:00 +16°C° 0 mm 2 mps 770 mmHg 60%
    13:00 +19°C° 0 mm 1 mps 769 mmHg 53%
    14:00 +18°C° 0 mm 1 mps 769 mmHg 53%
    15:00 +18°C° 0 mm 1 mps 769 mmHg 53%
    16:00 +18°C° 0 mm 1 mps 769 mmHg 53%
    17:00 +16°C° 0 mm 2 mps 769 mmHg 58%
    18:00 +14°C° 0 mm 2 mps 769 mmHg 64%
    19:00 +13°C° 0 mm 2 mps 769 mmHg 69%
    20:00 +12°C° 0 mm 3 mps 769 mmHg 68%
    21:00 +12°C° 0 mm 3 mps 769 mmHg 67%
    22:00 +11°C° 0 mm 3 mps 769 mmHg 66%
    23:00 +11°C° 0 mm 3 mps 769 mmHg 63%

    19 December, Wednesday

    Time Temperature Precipitation Wind Pressure Humidity
    00:00 +11°C° 0 mm 3 mps 768 mmHg 60%
    01:00 +11°C° 0 mm 3 mps 768 mmHg 58%
    02:00 +11°C° 0 mm 3 mps 768 mmHg 57%
    03:00 +11°C° 0 mm 3 mps 767 mmHg 57%
    04:00 +11°C° 0 mm 3 mps 767 mmHg 57%
    05:00 +11°C° 0 mm 3 mps 767 mmHg 60%
    06:00 +11°C° 0 mm 3 mps 767 mmHg 64%
    07:00 +11°C° 0 mm 3 mps 767 mmHg 67%
    08:00 +13°C° 0 mm 3 mps 767 mmHg 63%
    09:00 +14°C° 0 mm 3 mps 766 mmHg 60%
    10:00 +17°C° 0 mm 3 mps 766 mmHg 56%
    11:00 +18°C° 0 mm 3 mps 766 mmHg 51%
    12:00 +20°C° 0 mm 2 mps 765 mmHg 47%
    13:00 +21°C° 0 mm 2 mps 764 mmHg 42%
    14:00 +21°C° 0 mm 2 mps 764 mmHg 44%
    15:00 +22°C° 0 mm 1 mps 764 mmHg 46%
    16:00 +22°C° 0 mm 1 mps 763 mmHg 48%
    17:00 +21°C° 0 mm 1 mps 763 mmHg 50%
    18:00 +19°C° 0 mm 1 mps 763 mmHg 51%
    19:00 +16°C° 0 mm 1 mps 764 mmHg 53%
    20:00 +16°C° 0 mm 2 mps 764 mmHg 54%
    21:00 +16°C° 0 mm 2 mps 764 mmHg 54%
    22:00 +15°C° 0 mm 2 mps 764 mmHg 55%
    23:00 +15°C° 0 mm 2 mps 764 mmHg 55%
    Show more